Location: Brantley
(31.5822°N, 86.2569°W)
Time: 07:23:38
(UTC+00:00)

Vanguard 2 - Pass Details

Date: 25 February 2026
Orbit: 553 x 2896 km, 32.9° (Epoch: 9 March)

Event Time Altitude Azimuth Distance (km) Brightness Sun altitude
Rises 09:34:37 0° 255° (WSW) 5,473 - -35.1°
Reaches altitude 10° 09:38:50 10° 255° (WSW) 4,092 - -34.2°
Exits shadow 09:48:51 87° 187° (S) 1,175 8.2 -32.1°
Maximum altitude 09:48:54 87° 170° (S) 1,172 8.2 -32.1°
Drops below altitude 10° 09:54:50 10° 80° (E) 2,486 11.0 -30.9°
Sets 09:56:51 0° 80° (E) 3,234 11.9 -30.4°
